TimeMDT,TemperatureF,Dew PointF,Humidity,Sea Level PressureIn,VisibilityMPH,Wind Direction,Wind SpeedMPH,Gust SpeedMPH,PrecipitationIn,Events,Conditions,WindDirDegrees,DateUTC
12:15 AM,57.2,28.4,33,30.20,10.0,Calm,Calm,-,N/A,,Clear,0,2012-10-15 06:15:00
12:35 AM,57.2,28.4,33,30.20,10.0,Calm,Calm,-,N/A,,Clear,0,2012-10-15 06:35:00
12:55 AM,59.0,28.4,31,30.20,10.0,South,9.2,-,N/A,,Clear,170,2012-10-15 06:55:00
1:15 AM,59.0,28.4,31,30.20,10.0,South,9.2,-,N/A,,Clear,170,2012-10-15 07:15:00
1:35 AM,57.2,28.4,33,30.19,10.0,South,6.9,-,N/A,,Clear,170,2012-10-15 07:35:00
1:55 AM,55.4,28.4,36,30.19,10.0,SSE,8.1,-,N/A,,Clear,160,2012-10-15 07:55:00
2:15 AM,55.4,28.4,36,30.18,10.0,South,8.1,-,N/A,,Clear,170,2012-10-15 08:15:00
2:35 AM,55.4,28.4,36,30.18,10.0,South,9.2,-,N/A,,Clear,180,2012-10-15 08:35:00
2:55 AM,55.4,30.2,38,30.17,10.0,South,9.2,-,N/A,,Clear,170,2012-10-15 08:55:00
3:15 AM,55.4,30.2,38,30.17,10.0,South,9.2,-,N/A,,Clear,170,2012-10-15 09:15:00
3:55 AM,59.0,30.2,34,30.16,10.0,South,9.2,-,N/A,,Clear,170,2012-10-15 09:55:00
4:15 AM,57.2,30.2,36,30.17,10.0,SSE,9.2,-,N/A,,Clear,160,2012-10-15 10:15:00
4:35 AM,55.4,30.2,38,30.17,10.0,SSE,6.9,-,N/A,,Clear,150,2012-10-15 10:35:00
4:55 AM,55.4,30.2,38,30.17,10.0,SSE,8.1,-,N/A,,Clear,160,2012-10-15 10:55:00
5:15 AM,55.4,30.2,38,30.17,10.0,SSE,9.2,-,N/A,,Clear,160,2012-10-15 11:15:00
5:35 AM,55.4,30.2,38,30.17,10.0,South,10.4,-,N/A,,Clear,170,2012-10-15 11:35:00
6:15 AM,55.4,30.2,38,30.17,10.0,SSE,8.1,-,N/A,,Clear,160,2012-10-15 12:15:00
6:35 AM,57.2,30.2,36,30.17,10.0,SSE,10.4,-,N/A,,Clear,150,2012-10-15 12:35:00
6:55 AM,55.4,30.2,38,30.17,10.0,SSE,9.2,-,N/A,,Clear,150,2012-10-15 12:55:00
7:15 AM,55.4,30.2,38,30.18,10.0,SSE,9.2,-,N/A,,Clear,150,2012-10-15 13:15:00
7:35 AM,55.4,30.2,38,30.18,10.0,SSE,10.4,-,N/A,,Clear,160,2012-10-15 13:35:00
7:55 AM,55.4,32.0,41,30.18,10.0,SSE,10.4,-,N/A,,Clear,160,2012-10-15 13:55:00
8:15 AM,59.0,32.0,36,30.19,10.0,SSE,12.7,17.3,N/A,,Clear,150,2012-10-15 14:15:00
8:35 AM,60.8,32.0,34,30.19,10.0,SSE,11.5,-,N/A,,Clear,150,2012-10-15 14:35:00
8:55 AM,62.6,32.0,32,30.19,10.0,SSE,9.2,-,N/A,,Clear,150,2012-10-15 14:55:00
9:15 AM,62.6,32.0,32,30.20,10.0,SSE,9.2,-,N/A,,Clear,150,2012-10-15 15:15:00
9:35 AM,64.4,32.0,30,30.19,10.0,SE,11.5,-,N/A,,Clear,140,2012-10-15 15:35:00
9:55 AM,68.0,32.0,26,30.19,10.0,SE,10.4,-,N/A,,Clear,130,2012-10-15 15:55:00
10:15 AM,68.0,33.8,28,30.19,10.0,SE,10.4,-,N/A,,Clear,130,2012-10-15 16:15:00
10:35 AM,71.6,33.8,25,30.18,10.0,ESE,15.0,-,N/A,,Clear,120,2012-10-15 16:35:00
10:55 AM,73.4,33.8,23,30.18,10.0,ESE,13.8,19.6,N/A,,Clear,110,2012-10-15 16:55:00
11:15 AM,71.6,33.8,25,30.18,10.0,ESE,15.0,20.7,N/A,,Clear,120,2012-10-15 17:15:00
11:35 AM,73.4,33.8,23,30.17,10.0,SE,15.0,25.3,N/A,,Clear,130,2012-10-15 17:35:00
11:55 AM,77.0,33.8,21,30.17,10.0,SE,15.0,20.7,N/A,,Clear,130,2012-10-15 17:55:00
12:15 PM,75.2,33.8,22,30.16,10.0,SE,11.5,20.7,N/A,,Clear,130,2012-10-15 18:15:00
12:35 PM,77.0,33.8,21,30.16,10.0,SE,15.0,19.6,N/A,,Clear,130,2012-10-15 18:35:00
12:55 PM,77.0,33.8,21,30.15,10.0,ESE,10.4,19.6,N/A,,Clear,120,2012-10-15 18:55:00
1:15 PM,77.0,33.8,21,30.14,10.0,SE,11.5,17.3,N/A,,Clear,130,2012-10-15 19:15:00
1:35 PM,78.8,33.8,20,30.12,10.0,ESE,12.7,-,N/A,,Clear,120,2012-10-15 19:35:00
1:55 PM,77.0,33.8,21,30.11,10.0,ESE,9.2,-,N/A,,Clear,120,2012-10-15 19:55:00
2:15 PM,77.0,33.8,21,30.10,10.0,East,8.1,16.1,N/A,,Clear,100,2012-10-15 20:15:00
2:35 PM,78.8,33.8,20,30.08,10.0,ESE,9.2,-,N/A,,Clear,120,2012-10-15 20:35:00
2:55 PM,80.6,33.8,18,30.08,10.0,ESE,9.2,-,N/A,,Clear,110,2012-10-15 20:55:00
3:15 PM,78.8,33.8,20,30.08,10.0,SE,10.4,-,N/A,,Clear,140,2012-10-15 21:15:00
3:35 PM,80.6,33.8,18,30.07,10.0,SE,9.2,-,N/A,,Clear,140,2012-10-15 21:35:00
3:55 PM,80.6,33.8,18,30.06,10.0,ESE,6.9,-,N/A,,Clear,120,2012-10-15 21:55:00
4:15 PM,80.6,33.8,18,30.06,10.0,East,10.4,-,N/A,,Clear,100,2012-10-15 22:15:00
4:35 PM,80.6,33.8,18,30.06,10.0,ENE,4.6,-,N/A,,Clear,70,2012-10-15 22:35:00
4:55 PM,80.6,32.0,17,30.04,10.0,South,4.6,-,N/A,,Clear,170,2012-10-15 22:55:00
5:15 PM,80.6,32.0,17,30.04,10.0,East,3.5,-,N/A,,Clear,80,2012-10-15 23:15:00
5:35 PM,80.6,32.0,17,30.04,10.0,ESE,5.8,-,N/A,,Clear,110,2012-10-15 23:35:00
5:55 PM,78.8,32.0,18,30.03,10.0,Calm,Calm,-,N/A,,Clear,0,2012-10-15 23:55:00
6:15 PM,78.8,32.0,18,30.03,10.0,Calm,Calm,-,N/A,,Clear,0,2012-10-16 00:15:00
6:35 PM,77.0,32.0,19,30.03,10.0,Calm,Calm,-,N/A,,Clear,0,2012-10-16 00:35:00
6:55 PM,77.0,32.0,19,30.03,10.0,Calm,Calm,-,N/A,,Clear,0,2012-10-16 00:55:00
7:15 PM,69.8,30.2,23,30.03,10.0,Calm,Calm,-,N/A,,Clear,0,2012-10-16 01:15:00
7:35 PM,71.6,32.0,23,30.03,10.0,Calm,Calm,-,N/A,,Clear,0,2012-10-16 01:35:00
7:55 PM,66.2,30.2,26,30.03,10.0,Calm,Calm,-,N/A,,Clear,0,2012-10-16 01:55:00
8:15 PM,62.6,30.2,30,30.04,10.0,Calm,Calm,-,N/A,,Clear,0,2012-10-16 02:15:00
8:35 PM,60.8,28.4,29,30.04,10.0,South,3.5,-,N/A,,Clear,190,2012-10-16 02:35:00
8:55 PM,60.8,28.4,29,30.04,10.0,South,5.8,-,N/A,,Clear,180,2012-10-16 02:55:00
9:15 PM,62.6,30.2,30,30.04,10.0,SSW,5.8,-,N/A,,Clear,200,2012-10-16 03:15:00
9:35 PM,59.0,28.4,31,30.05,10.0,South,4.6,-,N/A,,Clear,180,2012-10-16 03:35:00
9:55 PM,59.0,28.4,31,30.06,10.0,South,6.9,-,N/A,,Clear,180,2012-10-16 03:55:00
10:15 PM,60.8,30.2,31,30.06,10.0,South,6.9,-,N/A,,Clear,190,2012-10-16 04:15:00
10:35 PM,55.4,28.4,36,30.06,10.0,SE,5.8,-,N/A,,Clear,130,2012-10-16 04:35:00
10:55 PM,57.2,28.4,33,30.05,10.0,South,3.5,-,N/A,,Clear,170,2012-10-16 04:55:00
11:15 PM,55.4,28.4,36,30.06,10.0,South,3.5,-,N/A,,Clear,190,2012-10-16 05:15:00
11:35 PM,53.6,28.4,38,30.05,10.0,South,4.6,-,N/A,,Clear,170,2012-10-16 05:35:00
11:55 PM,57.2,30.2,36,30.04,10.0,SE,3.5,-,N/A,,Clear,140,2012-10-16 05:55:00